ProjectID,Date,Electric Generation,Electric Utility Import,Facility Electric Load
,YYYY-MM-DD,kW,kW,kW
50,2009-01-01,0.0,,0.0
50,2009-01-02,0.0,,0.0
50,2009-01-03,0.0,,0.0
50,2009-01-04,0.0,,0.0
50,2009-01-05,0.0,,0.0
50,2009-01-06,0.0,,0.0
50,2009-01-07,0.0,,0.0
50,2009-01-08,0.0,,0.0
50,2009-01-09,0.0,,0.0
50,2009-01-10,0.0,,0.0
50,2009-01-11,0.0,,0.0
50,2009-01-12,0.0,,0.0
50,2009-01-13,0.0,,0.0
50,2009-01-14,0.0,,0.0
50,2009-01-15,0.0,,0.0
50,2009-01-16,0.0,,0.0
50,2009-01-17,0.0,,0.0
50,2009-01-18,0.0,,0.0
50,2009-01-19,0.0,,0.0
50,2009-01-20,0.0,,0.0
50,2009-01-21,0.0,,0.0
50,2009-01-22,193.4715,,193.4715
50,2009-01-23,193.32387500000002,,193.32387500000002
50,2009-01-24,193.42016666666666,,193.42016666666666
50,2009-01-25,193.41483333333335,,193.41483333333335
50,2009-01-26,193.42441666666664,,193.42441666666664
50,2009-01-27,193.42487500000001,,193.42487500000001
50,2009-01-28,193.432125,,193.432125
50,2009-01-29,145.0915,,145.0915
50,2009-01-30,193.46158333333335,,193.46158333333335
50,2009-01-31,193.431375,,193.431375
50,2009-02-01,193.45466666666667,,193.45466666666667
50,2009-02-02,191.56804166666666,,191.56804166666666
50,2009-02-03,110.96041666666667,,110.96041666666667
50,2009-02-04,193.62716666666665,,193.62716666666665
50,2009-02-05,105.00733333333334,,105.00733333333334
50,2009-02-06,193.64670833333332,,193.64670833333332
50,2009-02-07,193.476625,,193.476625
50,2009-02-08,193.66366666666667,,193.66366666666667
50,2009-02-09,193.64641666666668,,193.64641666666668
50,2009-02-10,191.6385,,191.6385
50,2009-02-11,190.455,,190.455
50,2009-02-12,143.03345833333333,,143.03345833333333
50,2009-02-13,193.63625000000002,,193.63625000000002
50,2009-02-14,191.68275000000003,,191.68275000000003
50,2009-02-15,193.70562500000003,,193.70562500000003
50,2009-02-16,193.69329166666668,,193.69329166666668
50,2009-02-17,193.666125,,193.666125
50,2009-02-18,189.66508333333334,,189.66508333333334
50,2009-02-19,131.20529166666668,,131.20529166666668
50,2009-02-20,187.64845833333334,,187.64845833333334
50,2009-02-21,189.66858333333334,,189.66858333333334
50,2009-02-22,193.73341666666667,,193.73341666666667
50,2009-02-23,191.68008333333333,,191.68008333333333
50,2009-02-24,189.60500000000002,,189.60500000000002
50,2009-02-25,177.55279166666665,,177.55279166666665
50,2009-02-26,191.7480416666667,,191.7480416666667
50,2009-02-27,191.759625,,191.759625
50,2009-02-28,189.63666666666666,,189.63666666666666
50,2009-03-01,193.68070833333334,,193.68070833333334
50,2009-03-02,191.51583333333335,,191.51583333333335
50,2009-03-03,193.37091666666666,,193.37091666666666
50,2009-03-04,191.33170833333335,,191.33170833333335
50,2009-03-05,183.33029166666665,,183.33029166666665
50,2009-03-06,190.49824999999998,,190.49824999999998
50,2009-03-07,193.421875,,193.421875
50,2009-03-08,183.2564583333333,,183.2564583333333
50,2009-03-09,193.32745833333334,,193.32745833333334
50,2009-03-10,173.1783333333333,,173.1783333333333
50,2009-03-11,192.3612916666667,,192.3612916666667
50,2009-03-12,193.75320833333333,,193.75320833333333
50,2009-03-13,191.59625000000003,,191.59625000000003
50,2009-03-14,191.67754166666668,,191.67754166666668
50,2009-03-15,147.90375,,147.90375
50,2009-03-16,128.67508333333333,,128.67508333333333
50,2009-03-17,130.61270833333333,,130.61270833333333
50,2009-03-18,135.10420833333333,,135.10420833333333
50,2009-03-19,191.38575,,191.38575
50,2009-03-20,94.84754166666666,,94.84754166666666
50,2009-03-21,191.69970833333332,,191.69970833333332
50,2009-03-22,193.77829166666666,,193.77829166666666
50,2009-03-23,135.20358333333334,,135.20358333333334
50,2009-03-24,193.73737500000001,,193.73737500000001
50,2009-03-25,189.39304166666668,,189.39304166666668
50,2009-03-26,192.66262500000002,,192.66262500000002
50,2009-03-27,91.66141666666665,,91.66141666666665
50,2009-03-28,188.03720833333333,,188.03720833333333
50,2009-03-29,191.37733333333333,,191.37733333333333
50,2009-03-30,191.54245833333334,,191.54245833333334
50,2009-03-31,193.60954166666667,,193.60954166666667
50,2009-04-01,192.50437499999998,,192.50437499999998
50,2009-04-02,186.02945833333334,,186.02945833333334
50,2009-04-03,115.326125,,115.326125
50,2009-04-04,193.44683333333333,,193.44683333333333
50,2009-04-05,193.63362500000002,,193.63362500000002
50,2009-04-06,131.18608333333333,,131.18608333333333
50,2009-04-07,193.71291666666664,,193.71291666666664
50,2009-04-08,175.573125,,175.573125
50,2009-04-09,189.32129166666667,,189.32129166666667
50,2009-04-10,193.75508333333335,,193.75508333333335
50,2009-04-11,185.74137499999998,,185.74137499999998
50,2009-04-12,193.77291666666667,,193.77291666666667
50,2009-04-13,194.02583333333334,,194.02583333333334
50,2009-04-14,192.49733333333333,,192.49733333333333
50,2009-04-15,192.2229166666667,,192.2229166666667
50,2009-04-16,140.59154166666667,,140.59154166666667
50,2009-04-17,183.84695833333333,,183.84695833333333
50,2009-04-18,192.73204166666667,,192.73204166666667
50,2009-04-19,190.69958333333332,,190.69958333333332
50,2009-04-20,191.09841666666668,,191.09841666666668
50,2009-04-21,192.40037500000003,,192.40037500000003
50,2009-04-22,87.79829166666667,,87.79829166666667
50,2009-04-23,192.49520833333335,,192.49520833333335
50,2009-04-24,167.35529166666666,,167.35529166666666
50,2009-04-25,163.58479166666666,,163.58479166666666
50,2009-04-26,189.433625,,189.433625
50,2009-04-27,166.69545833333333,,166.69545833333333
50,2009-04-28,147.066125,,147.066125
50,2009-04-29,158.92033333333333,,158.92033333333333
50,2009-04-30,154.56908333333334,,154.56908333333334
50,2009-05-01,142.65316666666666,,142.65316666666666
50,2009-05-02,152.12629166666667,,152.12629166666667
50,2009-05-03,152.1785,,152.1785
50,2009-05-04,150.572375,,150.572375
50,2009-05-05,152.151375,,152.151375
50,2009-05-06,152.05829166666666,,152.05829166666666
50,2009-05-07,152.064375,,152.064375
50,2009-05-08,151.941375,,151.941375
50,2009-05-09,152.07425,,152.07425
50,2009-05-10,152.11291666666668,,152.11291666666668
50,2009-05-11,150.50754166666667,,150.50754166666667
50,2009-05-12,115.62979166666666,,115.62979166666666
50,2009-05-13,152.08487499999998,,152.08487499999998
50,2009-05-14,151.86366666666666,,151.86366666666666
50,2009-05-15,106.00625000000001,,106.00625000000001
50,2009-05-16,151.89558333333335,,151.89558333333335
50,2009-05-17,151.96354166666666,,151.96354166666666
50,2009-05-18,99.75820833333334,,99.75820833333334
50,2009-05-19,151.97079166666666,,151.97079166666666
50,2009-05-20,151.74708333333334,,151.74708333333334
50,2009-05-21,96.84408333333333,,96.84408333333333
50,2009-05-22,151.92583333333332,,151.92583333333332
50,2009-05-23,152.056,,152.056
50,2009-05-24,151.99958333333333,,151.99958333333333
50,2009-05-25,151.96583333333334,,151.96583333333334
50,2009-05-26,152.07779166666668,,152.07779166666668
50,2009-05-27,148.99045833333335,,148.99045833333335
50,2009-05-28,151.908375,,151.908375
50,2009-05-29,151.93229166666666,,151.93229166666666
50,2009-05-30,152.019375,,152.019375
50,2009-05-31,151.94275000000002,,151.94275000000002
50,2009-06-01,91.84991666666667,,91.84991666666667
50,2009-06-02,150.37720833333333,,150.37720833333333
50,2009-06-03,151.96183333333332,,151.96183333333332
50,2009-06-04,150.33816666666667,,150.33816666666667
50,2009-06-05,151.56891666666667,,151.56891666666667
50,2009-06-06,151.89229166666667,,151.89229166666667
50,2009-06-07,152.02645833333335,,152.02645833333335
50,2009-06-08,152.00920833333333,,152.00920833333333
50,2009-06-09,147.19424999999998,,147.19424999999998
50,2009-06-10,7.912,,7.912
50,2009-06-11,0.0,,0.0
50,2009-06-12,59.94808333333333,,59.94808333333333
50,2009-06-13,152.46316666666667,,152.46316666666667
50,2009-06-14,152.235875,,152.235875
50,2009-06-15,103.01120833333333,,103.01120833333333
50,2009-06-16,151.44025,,151.44025
50,2009-06-17,150.155375,,150.155375
50,2009-06-18,144.10783333333333,,144.10783333333333
50,2009-06-19,151.986875,,151.986875
50,2009-06-20,152.048,,152.048
50,2009-06-21,151.44125,,151.44125
50,2009-06-22,148.46108333333333,,148.46108333333333
50,2009-06-23,149.15791666666667,,149.15791666666667
50,2009-06-24,146.586375,,146.586375
50,2009-06-25,144.115375,,144.115375
50,2009-06-26,150.23595833333334,,150.23595833333334
50,2009-06-27,142.26033333333334,,142.26033333333334
50,2009-06-28,147.93229166666666,,147.93229166666666
50,2009-06-29,149.18433333333334,,149.18433333333334
50,2009-06-30,145.07545833333333,,145.07545833333333
50,2009-07-01,150.06858333333335,,150.06858333333335
50,2009-07-02,151.989,,151.989
50,2009-07-03,151.98954166666667,,151.98954166666667
50,2009-07-04,152.01229166666667,,152.01229166666667
50,2009-07-05,145.884375,,145.884375
50,2009-07-06,102.44487500000001,,102.44487500000001
50,2009-07-07,151.95995833333333,,151.95995833333333
50,2009-07-08,150.40787500000002,,150.40787500000002
50,2009-07-09,72.02979166666667,,72.02979166666667
50,2009-07-10,148.18354166666668,,148.18354166666668
50,2009-07-11,149.43545833333334,,149.43545833333334
50,2009-07-12,152.11516666666668,,152.11516666666668
50,2009-07-13,104.72041666666667,,104.72041666666667
50,2009-07-14,66.58566666666667,,66.58566666666667
50,2009-07-15,103.37441666666666,,103.37441666666666
50,2009-07-16,144.208125,,144.208125
50,2009-07-17,149.508125,,149.508125
50,2009-07-18,123.26704166666667,,123.26704166666667
50,2009-07-19,103.01483333333334,,103.01483333333334
50,2009-07-20,80.94133333333333,,80.94133333333333
50,2009-07-21,117.68395833333334,,117.68395833333334
50,2009-07-22,102.75366666666667,,102.75366666666667
50,2009-07-23,129.79725,,129.79725
50,2009-07-24,140.54495833333334,,140.54495833333334
50,2009-07-25,140.70716666666667,,140.70716666666667
50,2009-07-26,143.64041666666665,,143.64041666666665
50,2009-07-27,147.26120833333331,,147.26120833333331
50,2009-07-28,142.65758333333335,,142.65758333333335
50,2009-07-29,141.795375,,141.795375
50,2009-07-30,109.36045833333333,,109.36045833333333
50,2009-07-31,73.72583333333334,,73.72583333333334
50,2009-08-01,146.87120833333333,,146.87120833333333
50,2009-08-02,145.87562499999999,,145.87562499999999
50,2009-08-03,150.89316666666667,,150.89316666666667
50,2009-08-04,143.76379166666666,,143.76379166666666
50,2009-08-05,102.13416666666666,,102.13416666666666
50,2009-08-06,157.81329166666666,,157.81329166666666
50,2009-08-07,162.13354166666667,,162.13354166666667
50,2009-08-08,162.06662500000002,,162.06662500000002
50,2009-08-09,153.12883333333335,,153.12883333333335
50,2009-08-10,144.14391666666668,,144.14391666666668
50,2009-08-11,147.744875,,147.744875
50,2009-08-12,63.173624999999994,,63.173624999999994
50,2009-08-13,54.449999999999996,,54.449999999999996
50,2009-08-14,145.63679166666665,,145.63679166666665
50,2009-08-15,144.66091666666668,,144.66091666666668
50,2009-08-16,144.01991666666666,,144.01991666666666
50,2009-08-17,105.28870833333333,,105.28870833333333
50,2009-08-18,84.895875,,84.895875
50,2009-08-19,82.893375,,82.893375
50,2009-08-20,145.48420833333333,,145.48420833333333
50,2009-08-21,140.07308333333333,,140.07308333333333
50,2009-08-22,140.56133333333335,,140.56133333333335
50,2009-08-23,145.26654166666665,,145.26654166666665
50,2009-08-24,148.20079166666667,,148.20079166666667
50,2009-08-25,147.62070833333334,,147.62070833333334
50,2009-08-26,147.52716666666666,,147.52716666666666
50,2009-08-27,165.13570833333333,,165.13570833333333
50,2009-08-28,160.92,,160.92
50,2009-08-29,160.92,,160.92
50,2009-08-30,160.92,,160.92
50,2009-08-31,160.92,,160.92
50,2009-09-01,104.03441666666667,,104.03441666666667
50,2009-09-02,154.77929166666667,,154.77929166666667
50,2009-09-03,151.88854166666667,,151.88854166666667
50,2009-09-04,151.17683333333335,,151.17683333333335
50,2009-09-05,156.45120833333334,,156.45120833333334
50,2009-09-06,162.17233333333334,,162.17233333333334
50,2009-09-07,157.15025,,157.15025
50,2009-09-08,153.06629166666667,,153.06629166666667
50,2009-09-09,157.543375,,157.543375
50,2009-09-10,115.05745833333333,,115.05745833333333
50,2009-09-11,161.20575,,161.20575
50,2009-09-12,151.86595833333334,,151.86595833333334
50,2009-09-13,155.73499999999999,,155.73499999999999
50,2009-09-14,158.14070833333332,,158.14070833333332
50,2009-09-15,161.88595833333332,,161.88595833333332
50,2009-09-16,167.32691666666668,,167.32691666666668
50,2009-09-17,162.421125,,162.421125
50,2009-09-18,164.87116666666665,,164.87116666666665
50,2009-09-19,175.58820833333334,,175.58820833333334
50,2009-09-20,168.602875,,168.602875
50,2009-09-21,160.13783333333333,,160.13783333333333
50,2009-09-22,73.699625,,73.699625
50,2009-09-23,145.36941666666667,,145.36941666666667
50,2009-09-24,160.86220833333334,,160.86220833333334
50,2009-09-25,172.94791666666666,,172.94791666666666
50,2009-09-26,166.28879166666667,,166.28879166666667
50,2009-09-27,159.17875,,159.17875
50,2009-09-28,151.07216666666667,,151.07216666666667
50,2009-09-29,161.25904166666666,,161.25904166666666
50,2009-09-30,162.49116666666666,,162.49116666666666
50,2009-10-01,180.71783333333335,,180.71783333333335
50,2009-10-02,174.6495,,174.6495
50,2009-10-03,160.31208333333333,,160.31208333333333
50,2009-10-04,165.77979166666668,,165.77979166666668
50,2009-10-05,159.32891666666666,,159.32891666666666
50,2009-10-06,161.24495833333333,,161.24495833333333
50,2009-10-07,162.82675,,162.82675
50,2009-10-08,170.63379166666667,,170.63379166666667
50,2009-10-09,166.64620833333333,,166.64620833333333
50,2009-10-10,171.85779166666669,,171.85779166666669
50,2009-10-11,178.55158333333335,,178.55158333333335
50,2009-10-12,182.24658333333332,,182.24658333333332
50,2009-10-13,104.888625,,104.888625
50,2009-10-14,186.26491666666666,,186.26491666666666
50,2009-10-15,176.66620833333332,,176.66620833333332
50,2009-10-16,181.63908333333333,,181.63908333333333
50,2009-10-17,184.45000000000002,,184.45000000000002
50,2009-10-18,183.95174999999998,,183.95174999999998
50,2009-10-19,177.26908333333333,,177.26908333333333
50,2009-10-20,165.22083333333333,,165.22083333333333
50,2009-10-21,171.744375,,171.744375
50,2009-10-22,126.799125,,126.799125
50,2009-10-23,184.80050000000003,,184.80050000000003
50,2009-10-24,62.48541666666667,,62.48541666666667
50,2009-10-25,173.50583333333336,,173.50583333333336
50,2009-10-26,183.49091666666666,,183.49091666666666
50,2009-10-27,173.0186666666667,,173.0186666666667
50,2009-10-28,176.9477916666667,,176.9477916666667
50,2009-10-29,181.07591666666667,,181.07591666666667
50,2009-10-30,181.21,,181.21
50,2009-10-31,181.21,,181.21
50,2009-11-01,181.21,,181.21
50,2009-11-02,104.84991666666667,,104.84991666666667
50,2009-11-03,176.39229166666667,,176.39229166666667
50,2009-11-04,186.53520833333334,,186.53520833333334
50,2009-11-05,183.817625,,183.817625
50,2009-11-06,186.91979166666667,,186.91979166666667
50,2009-11-07,174.28995833333332,,174.28995833333332
50,2009-11-08,169.7085,,169.7085
50,2009-11-09,161.37508333333332,,161.37508333333332
50,2009-11-10,176.36054166666668,,176.36054166666668
50,2009-11-11,183.72625000000002,,183.72625000000002
50,2009-11-12,137.53120833333332,,137.53120833333332
50,2009-11-13,183.929,,183.929
50,2009-11-14,185.16824999999997,,185.16824999999997
50,2009-11-15,171.30641666666668,,171.30641666666668
50,2009-11-16,185.10654166666666,,185.10654166666666
50,2009-11-17,186.91508333333334,,186.91508333333334
50,2009-11-18,184.625,,184.625
50,2009-11-19,179.699875,,179.699875
50,2009-11-20,177.38504166666667,,177.38504166666667
50,2009-11-21,171.44533333333334,,171.44533333333334
50,2009-11-22,184.67133333333334,,184.67133333333334
50,2009-11-23,186.34666666666666,,186.34666666666666
50,2009-11-24,184.96041666666667,,184.96041666666667
50,2009-11-25,171.54475,,171.54475
50,2009-11-26,174.90679166666666,,174.90679166666666
50,2009-11-27,182.75870833333332,,182.75870833333332
50,2009-11-28,182.23420833333333,,182.23420833333333
50,2009-11-29,183.54920833333333,,183.54920833333333
50,2009-11-30,182.46983333333333,,182.46983333333333
50,2009-12-01,186.75929166666666,,186.75929166666666
50,2009-12-02,179.51466666666667,,179.51466666666667
50,2009-12-03,174.15104166666666,,174.15104166666666
50,2009-12-04,168.43158333333335,,168.43158333333335
50,2009-12-05,185.139625,,185.139625
50,2009-12-06,187.01895833333333,,187.01895833333333
50,2009-12-07,187.10462500000003,,187.10462500000003
50,2009-12-08,186.95950000000002,,186.95950000000002
50,2009-12-09,182.69516666666667,,182.69516666666667
50,2009-12-10,186.6593333333333,,186.6593333333333
50,2009-12-11,191.65879166666664,,191.65879166666664
50,2009-12-12,193.75725,,193.75725
50,2009-12-13,191.56066666666666,,191.56066666666666
50,2009-12-14,186.81366666666668,,186.81366666666668
50,2009-12-15,128.775875,,128.775875
50,2009-12-16,128.789375,,128.789375
50,2009-12-17,93.90129166666667,,93.90129166666667
50,2009-12-18,128.79054166666666,,128.79054166666666
50,2009-12-19,128.74025,,128.74025
50,2009-12-20,9.393083333333333,,9.393083333333333
50,2009-12-21,128.79958333333335,,128.79958333333335
50,2009-12-22,154.49958333333333,,154.49958333333333
50,2009-12-23,193.68491666666668,,193.68491666666668
50,2009-12-24,193.73841666666667,,193.73841666666667
50,2009-12-25,149.7595,,149.7595
50,2009-12-26,160.58016666666666,,160.58016666666666
50,2009-12-27,187.493125,,187.493125
50,2009-12-28,169.33458333333334,,169.33458333333334
50,2009-12-29,187.62616666666668,,187.62616666666668
50,2009-12-30,193.68175,,193.68175
50,2009-12-31,193.7195,,193.7195
50,2010-01-01,183.61233333333334,,183.61233333333334
50,2010-01-02,191.42666666666665,,191.42666666666665
50,2010-01-03,193.71900000000002,,193.71900000000002
50,2010-01-04,193.69275000000002,,193.69275000000002
50,2010-01-05,191.713625,,191.713625
50,2010-01-06,193.70475,,193.70475
50,2010-01-07,191.69325,,191.69325
50,2010-01-08,193.708125,,193.708125
50,2010-01-09,193.6989583333333,,193.6989583333333
50,2010-01-10,193.7279583333333,,193.7279583333333
50,2010-01-11,193.68275000000003,,193.68275000000003
50,2010-01-12,193.76383333333334,,193.76383333333334
50,2010-01-13,193.6387083333333,,193.6387083333333
50,2010-01-14,191.31724999999997,,191.31724999999997
50,2010-01-15,142.66816666666668,,142.66816666666668
50,2010-01-16,0.0,,0.0
50,2010-01-17,0.0,,0.0
50,2010-01-18,70.5845,,70.5845
50,2010-01-19,181.498125,,181.498125
50,2010-01-20,193.63608333333332,,193.63608333333332
50,2010-01-21,193.62558333333334,,193.62558333333334
50,2010-01-22,193.6295,,193.6295
50,2010-01-23,193.65304166666667,,193.65304166666667
50,2010-01-24,173.936875,,173.936875
50,2010-01-25,121.38058333333333,,121.38058333333333
50,2010-01-26,192.93708333333333,,192.93708333333333
50,2010-01-27,193.68416666666667,,193.68416666666667
50,2010-01-28,92.765875,,92.765875
50,2010-01-29,116.98095833333333,,116.98095833333333
50,2010-01-30,191.59574999999998,,191.59574999999998
50,2010-01-31,193.65016666666668,,193.65016666666668
50,2010-02-01,193.6542916666667,,193.6542916666667
50,2010-02-02,193.63175,,193.63175
50,2010-02-03,193.69745833333332,,193.69745833333332
50,2010-02-04,189.63275,,189.63275
50,2010-02-05,193.65650000000002,,193.65650000000002
50,2010-02-06,193.62366666666665,,193.62366666666665
50,2010-02-07,193.67429166666668,,193.67429166666668
50,2010-02-08,189.56429166666666,,189.56429166666666
50,2010-02-09,193.617375,,193.617375
50,2010-02-10,193.679625,,193.679625
50,2010-02-11,193.65025,,193.65025
50,2010-02-12,193.64070833333335,,193.64070833333335
50,2010-02-13,189.65554166666666,,189.65554166666666
50,2010-02-14,193.67279166666665,,193.67279166666665
50,2010-02-15,193.61429166666667,,193.61429166666667
50,2010-02-16,193.640125,,193.640125
50,2010-02-17,78.66708333333334,,78.66708333333334
50,2010-02-18,181.54391666666666,,181.54391666666666
50,2010-02-19,193.61945833333334,,193.61945833333334
50,2010-02-20,193.63270833333334,,193.63270833333334
50,2010-02-21,193.6292083333333,,193.6292083333333
50,2010-02-22,193.70041666666668,,193.70041666666668
50,2010-02-23,184.45675000000003,,184.45675000000003
50,2010-02-24,193.43691666666666,,193.43691666666666
50,2010-02-25,193.12300000000002,,193.12300000000002
50,2010-02-26,190.66604166666664,,190.66604166666664
50,2010-02-27,192.37145833333332,,192.37145833333332
50,2010-02-28,191.29049999999998,,191.29049999999998
50,2010-03-01,193.20062499999997,,193.20062499999997
50,2010-03-02,193.09920833333334,,193.09920833333334
50,2010-03-03,189.56875,,189.56875
50,2010-03-04,189.49879166666665,,189.49879166666665
50,2010-03-05,193.66833333333332,,193.66833333333332
50,2010-03-06,193.017125,,193.017125
50,2010-03-07,181.66829166666665,,181.66829166666665
50,2010-03-08,190.24641666666665,,190.24641666666665
50,2010-03-09,190.9475,,190.9475
50,2010-03-10,190.657875,,190.657875
50,2010-03-11,189.84370833333332,,189.84370833333332
50,2010-03-12,179.18904166666667,,179.18904166666667
50,2010-03-13,19.833916666666667,,19.833916666666667
50,2010-03-14,184.96883333333335,,184.96883333333335
50,2010-03-15,119.79658333333333,,119.79658333333333
50,2010-03-16,184.68029166666668,,184.68029166666668
50,2010-03-17,182.15420833333334,,182.15420833333334
50,2010-03-18,179.73491666666666,,179.73491666666666
50,2010-03-19,177.324375,,177.324375
50,2010-03-20,174.5030416666667,,174.5030416666667
50,2010-03-21,127.45104166666665,,127.45104166666665
50,2010-03-22,149.53058333333334,,149.53058333333334
50,2010-03-23,193.03991666666664,,193.03991666666664
50,2010-03-24,189.76862500000001,,189.76862500000001
50,2010-03-25,183.48749999999998,,183.48749999999998
50,2010-03-26,191.63720833333332,,191.63720833333332
50,2010-03-27,193.52845833333333,,193.52845833333333
50,2010-03-28,189.38404166666666,,189.38404166666666
50,2010-03-29,181.463375,,181.463375
50,2010-03-30,192.11179166666668,,192.11179166666668
50,2010-03-31,186.79091666666667,,186.79091666666667
50,2010-04-01,178.531625,,178.531625
50,2010-04-02,161.554125,,161.554125
50,2010-04-03,149.41695833333333,,149.41695833333333
50,2010-04-04,169.44866666666667,,169.44866666666667
50,2010-04-05,166.16983333333334,,166.16983333333334
50,2010-04-06,173.53245833333335,,173.53245833333335
50,2010-04-07,164.863375,,164.863375
50,2010-04-08,170.88441666666665,,170.88441666666665
50,2010-04-09,178.09958333333336,,178.09958333333336
50,2010-04-10,180.745125,,180.745125
50,2010-04-11,180.14191666666667,,180.14191666666667
50,2010-04-12,182.25966666666667,,182.25966666666667
50,2010-04-13,179.78645833333334,,179.78645833333334
50,2010-04-14,169.66383333333332,,169.66383333333332
50,2010-04-15,128.56179166666666,,128.56179166666666
50,2010-04-16,172.899375,,172.899375
50,2010-04-17,179.65408333333335,,179.65408333333335
50,2010-04-18,178.89216666666667,,178.89216666666667
50,2010-04-19,172.8468333333333,,172.8468333333333
50,2010-04-20,167.09045833333332,,167.09045833333332
50,2010-04-21,164.42416666666665,,164.42416666666665
50,2010-04-22,179.85625000000002,,179.85625000000002
50,2010-04-23,177.40270833333332,,177.40270833333332
50,2010-04-24,169.59245833333333,,169.59245833333333
50,2010-04-25,167.97633333333332,,167.97633333333332
50,2010-04-26,162.97070833333333,,162.97070833333333
50,2010-04-27,183.30875,,183.30875
50,2010-04-28,176.62075000000002,,176.62075000000002
50,2010-04-29,174.90879166666664,,174.90879166666664
50,2010-04-30,168.15995833333332,,168.15995833333332
50,2010-05-01,157.10925,,157.10925
50,2010-05-02,57.40054166666667,,57.40054166666667
50,2010-05-03,146.69829166666668,,146.69829166666668
50,2010-05-04,160.42658333333333,,160.42658333333333
50,2010-05-05,156.16829166666668,,156.16829166666668
50,2010-05-06,157.86954166666666,,157.86954166666666